Location: Olsztyn
(53.7767°N, 20.4765°E)
Time: 08:03:20
(UTC+01:00)

Transit 4A - Pass Details

Date: 02 October 2022
Orbit: 871 x 972 km, 66.8° (Epoch: 06 December)

Event Time Altitude Azimuth Distance (km) Brightness Sun altitude
Rises 05:34:47 0° 315° (NW) 3,527 10.6 -10.6°
Reaches altitude 10° 05:37:28 10° 323° (NW) 2,571 9.9 -10.2°
Maximum altitude 05:43:03 41° 33° (NNE) 1,267 9.0 -9.4°
Drops below altitude 10° 05:48:33 10° 103° (ESE) 2,525 11.6 -8.6°
Sets 05:51:10 0° 110° (ESE) 3,458 12.2 -8.2°
